Time,TemperatureF,DewpointF,PressureIn,WindDirection,WindDirectionDegrees,WindSpeedMPH,WindSpeedGustMPH,Humidity,HourlyPrecipIn,Conditions,Clouds,dailyrainin,SolarRadiationWatts/m^2,SoftwareType,DateUTC
2013-06-15 00:11:00,76.0,69.0,-100.00,East,82,16.0,21.0,80,0.00,,,0.00,0.000000,,2013-06-15 10:11:00,
2013-06-15 00:23:00,76.0,69.0,-100.00,East,82,16.0,21.0,80,0.00,,,0.00,0.000000,,2013-06-15 10:23:00,
2013-06-15 00:33:00,76.0,69.0,-100.00,East,82,16.0,21.0,80,0.00,,,0.00,0.000000,,2013-06-15 10:33:00,
2013-06-15 00:43:00,76.0,69.0,-100.00,East,82,16.0,21.0,80,0.00,,,0.00,0.000000,,2013-06-15 10:43:00,
2013-06-15 01:11:00,75.0,68.0,-100.00,ENE,76,15.0,20.0,80,0.00,,,0.00,0.000000,,2013-06-15 11:11:00,
2013-06-15 01:22:00,75.0,68.0,-100.00,ENE,76,15.0,20.0,80,0.00,,,0.00,0.000000,,2013-06-15 11:22:00,
2013-06-15 01:33:00,75.0,68.0,-100.00,ENE,76,15.0,20.0,80,0.00,,,0.00,0.000000,,2013-06-15 11:33:00,
2013-06-15 01:43:00,75.0,68.0,-100.00,ENE,76,15.0,20.0,80,0.00,,,0.00,0.000000,,2013-06-15 11:43:00,
2013-06-15 02:11:00,75.0,69.0,-100.00,East,90,15.0,21.0,81,0.01,,,0.01,0.000000,,2013-06-15 12:11:00,
2013-06-15 02:22:00,75.0,69.0,-100.00,East,90,15.0,21.0,81,0.01,,,0.01,0.000000,,2013-06-15 12:22:00,
2013-06-15 02:33:00,75.0,69.0,-100.00,East,90,15.0,21.0,81,0.01,,,0.01,0.000000,,2013-06-15 12:33:00,
2013-06-15 02:43:00,75.0,69.0,-100.00,East,90,15.0,21.0,81,0.01,,,0.01,0.000000,,2013-06-15 12:43:00,
2013-06-15 03:11:00,75.0,69.0,-100.00,East,90,13.0,21.0,81,0.00,,,0.01,0.000000,,2013-06-15 13:11:00,
2013-06-15 03:22:00,75.0,69.0,-100.00,East,90,13.0,21.0,81,0.00,,,0.01,0.000000,,2013-06-15 13:22:00,
2013-06-15 03:32:00,75.0,69.0,-100.00,East,90,13.0,21.0,81,0.00,,,0.01,0.000000,,2013-06-15 13:32:00,
2013-06-15 03:43:00,75.0,69.0,-100.00,East,90,13.0,21.0,81,0.00,,,0.01,0.000000,,2013-06-15 13:43:00,
2013-06-15 04:12:00,75.0,69.0,-100.00,East,84,14.0,18.0,81,0.00,,,0.01,0.000000,,2013-06-15 14:12:00,
2013-06-15 04:22:00,75.0,69.0,-100.00,East,84,14.0,18.0,81,0.00,,,0.01,0.000000,,2013-06-15 14:22:00,
2013-06-15 04:34:00,75.0,69.0,-100.00,East,84,14.0,18.0,81,0.00,,,0.01,0.000000,,2013-06-15 14:34:00,
2013-06-15 04:43:00,75.0,69.0,-100.00,East,84,14.0,18.0,81,0.00,,,0.01,0.000000,,2013-06-15 14:43:00,
2013-06-15 05:11:00,75.0,68.0,-100.00,East,90,14.0,20.0,79,0.00,,,0.01,0.000000,,2013-06-15 15:11:00,
2013-06-15 05:22:00,75.0,68.0,-100.00,East,90,14.0,20.0,79,0.00,,,0.01,0.000000,,2013-06-15 15:22:00,
2013-06-15 05:33:00,75.0,68.0,-100.00,East,90,14.0,20.0,79,0.00,,,0.01,0.000000,,2013-06-15 15:33:00,
2013-06-15 05:42:00,75.0,68.0,-100.00,East,90,14.0,20.0,79,0.00,,,0.01,0.000000,,2013-06-15 15:42:00,
2013-06-15 06:11:00,75.0,68.0,-100.00,East,86,15.0,20.0,80,0.00,,,0.01,0.000000,,2013-06-15 16:11:00,
2013-06-15 06:22:00,75.0,68.0,-100.00,East,86,15.0,20.0,80,0.00,,,0.01,0.000000,,2013-06-15 16:22:00,
2013-06-15 06:33:00,75.0,68.0,-100.00,East,86,15.0,20.0,80,0.00,,,0.01,0.000000,,2013-06-15 16:33:00,
2013-06-15 06:43:00,75.0,68.0,-100.00,East,86,15.0,20.0,80,0.00,,,0.01,0.000000,,2013-06-15 16:43:00,
2013-06-15 07:11:00,76.0,69.0,-100.00,East,84,17.0,25.0,78,0.00,,,0.01,35.000000,,2013-06-15 17:11:00,
2013-06-15 07:21:00,76.0,69.0,-100.00,East,84,17.0,25.0,78,0.00,,,0.01,35.000000,,2013-06-15 17:21:00,
2013-06-15 07:32:00,76.0,69.0,-100.00,East,84,17.0,25.0,78,0.00,,,0.01,35.000000,,2013-06-15 17:32:00,
2013-06-15 07:43:00,76.0,69.0,-100.00,East,84,17.0,25.0,78,0.00,,,0.01,35.000000,,2013-06-15 17:43:00,
2013-06-15 08:11:00,77.0,68.0,-100.00,East,85,17.0,23.0,75,0.00,,,0.01,226.000000,,2013-06-15 18:11:00,
2013-06-15 08:22:00,77.0,68.0,-100.00,East,85,17.0,23.0,75,0.00,,,0.01,226.000000,,2013-06-15 18:22:00,
2013-06-15 08:32:00,77.0,68.0,-100.00,East,85,17.0,23.0,75,0.00,,,0.01,226.000000,,2013-06-15 18:32:00,
2013-06-15 08:43:00,77.0,68.0,-100.00,East,85,17.0,23.0,75,0.00,,,0.01,226.000000,,2013-06-15 18:43:00,
2013-06-15 09:11:00,78.0,69.0,-100.00,East,88,18.0,23.0,73,0.00,,,0.01,526.000000,,2013-06-15 19:11:00,
2013-06-15 09:22:00,78.0,69.0,-100.00,East,88,18.0,23.0,73,0.00,,,0.01,526.000000,,2013-06-15 19:22:00,
2013-06-15 09:33:00,78.0,69.0,-100.00,East,88,18.0,23.0,73,0.00,,,0.01,526.000000,,2013-06-15 19:33:00,
2013-06-15 09:43:00,78.0,69.0,-100.00,East,88,18.0,23.0,73,0.00,,,0.01,526.000000,,2013-06-15 19:43:00,
2013-06-15 10:11:00,78.0,69.0,-100.00,East,95,17.0,26.0,73,0.00,,,0.01,674.000000,,2013-06-15 20:11:00,
2013-06-15 10:22:00,78.0,69.0,-100.00,East,95,17.0,26.0,73,0.00,,,0.01,674.000000,,2013-06-15 20:22:00,
2013-06-15 10:33:00,78.0,69.0,-100.00,East,95,17.0,26.0,73,0.00,,,0.01,674.000000,,2013-06-15 20:33:00,
2013-06-15 10:43:00,78.0,69.0,-100.00,East,95,17.0,26.0,73,0.00,,,0.01,674.000000,,2013-06-15 20:43:00,
2013-06-15 11:11:00,77.0,70.0,-100.00,East,87,19.0,27.0,78,0.03,,,0.04,785.000000,,2013-06-15 21:11:00,
2013-06-15 11:22:00,77.0,70.0,-100.00,East,87,19.0,27.0,78,0.03,,,0.04,785.000000,,2013-06-15 21:22:00,
2013-06-15 11:33:00,77.0,70.0,-100.00,East,87,19.0,27.0,78,0.03,,,0.04,785.000000,,2013-06-15 21:33:00,
2013-06-15 11:42:00,77.0,70.0,-100.00,East,87,19.0,27.0,78,0.03,,,0.04,785.000000,,2013-06-15 21:42:00,
2013-06-15 12:11:00,79.0,70.0,-100.00,East,93,16.0,23.0,75,0.01,,,0.05,1042.000000,,2013-06-15 22:11:00,
2013-06-15 12:22:00,79.0,70.0,-100.00,East,93,16.0,23.0,75,0.01,,,0.05,1042.000000,,2013-06-15 22:22:00,
2013-06-15 12:32:00,79.0,70.0,-100.00,East,93,16.0,23.0,75,0.01,,,0.05,1042.000000,,2013-06-15 22:32:00,
2013-06-15 12:42:00,79.0,70.0,-100.00,East,93,16.0,23.0,75,0.01,,,0.05,1042.000000,,2013-06-15 22:42:00,
2013-06-15 13:11:00,80.0,69.0,-100.00,East,90,18.0,23.0,70,0.00,,,0.05,850.000000,,2013-06-15 23:11:00,
2013-06-15 13:22:00,80.0,69.0,-100.00,East,90,18.0,23.0,70,0.00,,,0.05,850.000000,,2013-06-15 23:22:00,
2013-06-15 13:33:00,80.0,69.0,-100.00,East,90,18.0,23.0,70,0.00,,,0.05,850.000000,,2013-06-15 23:33:00,
2013-06-15 13:42:00,80.0,69.0,-100.00,East,90,18.0,23.0,70,0.00,,,0.05,850.000000,,2013-06-15 23:42:00,
2013-06-15 14:11:00,80.0,69.0,-100.00,East,85,17.0,24.0,70,0.00,,,0.05,950.000000,,2013-06-16 00:11:00,
2013-06-15 14:22:00,80.0,69.0,-100.00,East,85,17.0,24.0,70,0.00,,,0.05,950.000000,,2013-06-16 00:22:00,
2013-06-15 14:33:00,80.0,69.0,-100.00,East,85,17.0,24.0,70,0.00,,,0.05,950.000000,,2013-06-16 00:33:00,
2013-06-15 14:43:00,80.0,69.0,-100.00,East,85,17.0,24.0,70,0.00,,,0.05,950.000000,,2013-06-16 00:43:00,
2013-06-15 15:11:00,80.0,70.0,-100.00,East,85,18.0,24.0,71,0.00,,,0.05,982.000000,,2013-06-16 01:11:00,
2013-06-15 15:22:00,80.0,70.0,-100.00,East,85,18.0,24.0,71,0.00,,,0.05,982.000000,,2013-06-16 01:22:00,
2013-06-15 15:33:00,80.0,70.0,-100.00,East,85,18.0,24.0,71,0.00,,,0.05,982.000000,,2013-06-16 01:33:00,
2013-06-15 15:42:00,80.0,70.0,-100.00,East,85,18.0,24.0,71,0.00,,,0.05,982.000000,,2013-06-16 01:42:00,
2013-06-15 16:12:00,79.0,70.0,-100.00,East,82,18.0,23.0,75,0.00,,,0.05,815.000000,,2013-06-16 02:12:00,
2013-06-15 16:22:00,79.0,70.0,-100.00,East,82,18.0,23.0,75,0.00,,,0.05,815.000000,,2013-06-16 02:22:00,
2013-06-15 16:33:00,79.0,70.0,-100.00,East,82,18.0,23.0,75,0.00,,,0.05,815.000000,,2013-06-16 02:33:00,
2013-06-15 16:43:00,79.0,70.0,-100.00,East,82,18.0,23.0,75,0.00,,,0.05,815.000000,,2013-06-16 02:43:00,
2013-06-15 17:11:00,79.0,69.0,-100.00,East,83,17.0,23.0,71,0.00,,,0.05,665.000000,,2013-06-16 03:11:00,
2013-06-15 17:22:00,79.0,69.0,-100.00,East,83,17.0,23.0,71,0.00,,,0.05,665.000000,,2013-06-16 03:22:00,
2013-06-15 17:33:00,79.0,69.0,-100.00,East,83,17.0,23.0,71,0.00,,,0.05,665.000000,,2013-06-16 03:33:00,
2013-06-15 17:43:00,79.0,69.0,-100.00,East,83,17.0,23.0,71,0.00,,,0.05,665.000000,,2013-06-16 03:43:00,
2013-06-15 18:12:00,78.0,69.0,-100.00,ENE,77,17.0,21.0,74,0.00,,,0.05,337.000000,,2013-06-16 04:12:00,
2013-06-15 18:23:00,78.0,69.0,-100.00,ENE,77,17.0,21.0,74,0.00,,,0.05,337.000000,,2013-06-16 04:23:00,
2013-06-15 18:33:00,78.0,69.0,-100.00,ENE,77,17.0,21.0,74,0.00,,,0.05,337.000000,,2013-06-16 04:33:00,
2013-06-15 18:42:00,78.0,69.0,-100.00,ENE,77,17.0,21.0,74,0.00,,,0.05,337.000000,,2013-06-16 04:42:00,
2013-06-15 19:11:00,77.0,69.0,-100.00,East,81,16.0,21.0,76,0.00,,,0.05,119.000000,,2013-06-16 05:11:00,
2013-06-15 19:22:00,77.0,69.0,-100.00,East,81,16.0,21.0,76,0.00,,,0.05,119.000000,,2013-06-16 05:22:00,
2013-06-15 19:33:00,77.0,69.0,-100.00,East,81,16.0,21.0,76,0.00,,,0.05,119.000000,,2013-06-16 05:33:00,
2013-06-15 19:43:00,77.0,69.0,-100.00,East,81,16.0,21.0,76,0.00,,,0.05,119.000000,,2013-06-16 05:43:00,
2013-06-15 20:11:00,76.0,69.0,-100.00,East,82,16.0,21.0,78,0.00,,,0.05,22.000000,,2013-06-16 06:11:00,
2013-06-15 20:22:00,76.0,69.0,-100.00,East,82,16.0,21.0,78,0.00,,,0.05,22.000000,,2013-06-16 06:22:00,
2013-06-15 20:33:00,76.0,69.0,-100.00,East,82,16.0,21.0,78,0.00,,,0.05,22.000000,,2013-06-16 06:33:00,
2013-06-15 20:43:00,76.0,69.0,-100.00,East,82,16.0,21.0,78,0.00,,,0.05,22.000000,,2013-06-16 06:43:00,
2013-06-15 21:11:00,75.0,68.0,-100.00,East,83,15.0,21.0,80,0.00,,,0.05,0.000000,,2013-06-16 07:11:00,
2013-06-15 21:22:00,75.0,68.0,-100.00,East,83,15.0,21.0,80,0.00,,,0.05,0.000000,,2013-06-16 07:22:00,
2013-06-15 21:32:00,75.0,68.0,-100.00,East,83,15.0,21.0,80,0.00,,,0.05,0.000000,,2013-06-16 07:32:00,
2013-06-15 21:43:00,75.0,68.0,-100.00,East,83,15.0,21.0,80,0.00,,,0.05,0.000000,,2013-06-16 07:43:00,
2013-06-15 22:11:00,76.0,69.0,-100.00,East,80,16.0,21.0,79,0.00,,,0.05,0.000000,,2013-06-16 08:11:00,
2013-06-15 22:22:00,76.0,69.0,-100.00,East,80,16.0,21.0,79,0.00,,,0.05,0.000000,,2013-06-16 08:22:00,
2013-06-15 22:33:00,76.0,69.0,-100.00,East,80,16.0,21.0,79,0.00,,,0.05,0.000000,,2013-06-16 08:33:00,
2013-06-15 22:43:00,76.0,69.0,-100.00,East,80,16.0,21.0,79,0.00,,,0.05,0.000000,,2013-06-16 08:43:00,
2013-06-15 23:11:00,75.0,68.0,-100.00,East,84,15.0,21.0,80,0.00,,,0.05,0.000000,,2013-06-16 09:11:00,
2013-06-15 23:22:00,75.0,68.0,-100.00,East,84,15.0,21.0,80,0.00,,,0.05,0.000000,,2013-06-16 09:22:00,
2013-06-15 23:33:00,75.0,68.0,-100.00,East,84,15.0,21.0,80,0.00,,,0.05,0.000000,,2013-06-16 09:33:00,
2013-06-15 23:42:00,75.0,68.0,-100.00,East,84,15.0,21.0,80,0.00,,,0.05,0.000000,,2013-06-16 09:42:00,